This is the latest recevied weather packets stored in our database for station/object KQ7A. If no packets are shown the sender has not sent any weather packets the latest 10 day(s).
| Time | Temp. | Humidity | Pressure | Rain* | Wind** | Luminosity | Snow |
|---|---|---|---|---|---|---|---|
| 1788249784 | 17.78° C | 31% | 1014.8 hPa | 0 mm | - | 0 W/m² | - |
| 1788249478 | 17.22° C | 31% | 1014.6 hPa | 0 mm | - | 0 W/m² | - |
| 1788249174 | 16.67° C | 33% | 1014.8 hPa | 0 mm | - | 0 W/m² | - |
| 1788248868 | 17.22° C | 35% | 1014.7 hPa | 0 mm | - | 0 W/m² | - |
| 1788248563 | 17.22° C | 33% | 1015 hPa | 0 mm | - | 0 W/m² | - |
| 1788248259 | 17.78° C | 33% | 1014.7 hPa | 0 mm | - | 0 W/m² | - |
| 1788247955 | 18.33° C | 28% | 1014.7 hPa | 0 mm | - | 0 W/m² | - |
| 1788247650 | 18.33° C | 26% | 1014.6 hPa | 0 mm | - | 0 W/m² | - |
| 1788247344 | 17.78° C | 30% | 1014.7 hPa | 0 mm | - | 0 W/m² | - |
| 1788247038 | 17.78° C | 27% | 1014.6 hPa | 0 mm | - | 0 W/m² | - |
| 1788246733 | 16.67° C | 31% | 1014.4 hPa | 0 mm | - | 0 W/m² | - |
| 1788246427 | 16.67° C | 31% | 1014.5 hPa | 0 mm | - | 0 W/m² | - |
| 1788246123 | 17.22° C | 32% | 1014.5 hPa | 0 mm | - | 0 W/m² | - |
| 1788245821 | 17.78° C | 29% | 1014.5 hPa | 0 mm | - | 0 W/m² | - |
| 1788245516 | 17.22° C | 29% | 1014.7 hPa | 0 mm | - | 0 W/m² | - |
| 1788245213 | 16.11° C | 33% | 1014.7 hPa | 0 mm | - | 0 W/m² | - |
| 1788244909 | 16.11° C | 35% | 1014.5 hPa | 0 mm | - | 0 W/m² | - |
| 1788244606 | 16.11° C | 33% | 1014.3 hPa | 0 mm | - | 0 W/m² | - |
| 1788244302 | 16.11° C | 37% | 1014.8 hPa | 0 mm | - | 0 W/m² | - |
| 1788243997 | 16.67° C | 39% | 1015.1 hPa | 0 mm | - | 0 W/m² | - |
| 1788243693 | 17.22° C | 35% | 1015.1 hPa | 0 mm | - | 0 W/m² | - |
| 1788243389 | 17.78° C | 35% | 1014.8 hPa | 0 mm | - | 0 W/m² | - |
| 1788243084 | 17.22° C | 35% | 1015 hPa | 0 mm | - | 0 W/m² | - |
| 1788242784 | 18.33° C | 36% | 1015 hPa | 0 mm | - | 0 W/m² | - |
| 1788242479 | 17.78° C | 34% | 1014.7 hPa | 0 mm | - | 0 W/m² | - |
* Rain latest hour (hover to see other rain measurements)
** Current wind speed in m/s (hover to see current wind gust speed)